| time (UTC) | temp F | wind direction | speed knots | gust knots | rain 1hr in | rain 24hr in | rain mn in | humidity % | barometer mb |
| 20260507182518 | 62 | 243 | 3.5 | 7.0 | 0.00 | 0.17 | 0.04 | 38 | 1006.3 |
| 20260507181521 | 62 | 260 | 3.5 | 7.0 | 0.00 | 0.18 | 0.04 | 38 | 1006.5 |
| 20260507180520 | 62 | 256 | 3.5 | 7.8 | 0.00 | 0.18 | 0.04 | 38 | 1006.6 |
| 20260507175517 | 63 | 269 | 2.6 | 7.0 | 0.00 | 0.18 | 0.04 | 40 | 1006.6 |
| 20260507174517 | 62 | 269 | 2.6 | 7.8 | 0.00 | 0.18 | 0.04 | 44 | 1006.5 |
| 20260507173519 | 62 | 279 | 3.5 | 7.0 | 0.00 | 0.18 | 0.04 | 45 | 1006.5 |
| 20260507172540 | 62 | 304 | 2.6 | 7.8 | 0.00 | 0.18 | 0.04 | 46 | 1006.5 |
| 20260507171517 | 62 | 256 | 2.6 | 7.0 | 0.00 | 0.18 | 0.04 | 45 | 1006.7 |
| 20260507170519 | 61 | 269 | 2.6 | 6.1 | 0.00 | 0.18 | 0.04 | 46 | 1006.9 |
| 20260507165538 | 61 | 293 | 2.6 | 7.0 | 0.00 | 0.18 | 0.04 | 48 | 1007.0 |
| 20260507164519 | 61 | 275 | 3.5 | 7.8 | 0.00 | 0.18 | 0.04 | 48 | 1007.1 |
| 20260507163521 | 61 | 281 | 2.6 | 7.8 | 0.00 | 0.18 | 0.04 | 50 | 1007.1 |
| 20260507162518 | 61 | 304 | 2.6 | 5.2 | 0.00 | 0.18 | 0.04 | 52 | 1007.2 |
| 20260507161539 | 61 | 271 | 2.6 | 6.1 | 0.00 | 0.18 | 0.04 | 53 | 1007.4 |
| 20260507160518 | 61 | 294 | 2.6 | 5.2 | 0.00 | 0.18 | 0.04 | 57 | 1007.4 |
| 20260507155518 | 60 | 284 | 2.6 | 7.0 | 0.00 | 0.18 | 0.04 | 58 | 1007.5 |
| 20260507154539 | 60 | 282 | 3.5 | 7.0 | 0.00 | 0.18 | 0.04 | 59 | 1007.5 |
| 20260507153521 | 59 | 266 | 2.6 | 7.0 | 0.00 | 0.18 | 0.04 | 59 | 1007.4 |
| 20260507152540 | 59 | 302 | 2.6 | 5.2 | 0.00 | 0.18 | 0.04 | 64 | 1007.6 |
| 20260507151538 | 58 | 257 | 2.6 | 7.8 | 0.00 | 0.18 | 0.04 | 63 | 1007.6 |
| 20260507150519 | 58 | 288 | 1.7 | 7.0 | 0.00 | 0.18 | 0.04 | 65 | 1007.8 |
| 20260507145519 | 57 | 301 | 2.6 | 6.1 | 0.00 | 0.18 | 0.04 | 67 | 1007.9 |
| 20260507144519 | 57 | 278 | 2.6 | 7.0 | 0.00 | 0.18 | 0.04 | 66 | 1008.1 |
| 20260507143517 | 57 | 259 | 1.7 | 6.1 | 0.00 | 0.18 | 0.04 | 66 | 1008.1 |
| 20260507142517 | 57 | 317 | 0.9 | 2.6 | 0.00 | 0.18 | 0.04 | 67 | 1008.1 |
| 20260507141521 | 57 | 344 | 1.7 | 3.5 | 0.00 | 0.18 | 0.04 | 67 | 1008.2 |
| 20260507140519 | 56 | 267 | 0.9 | 3.5 | 0.00 | 0.18 | 0.04 | 66 | 1008.2 |
| 20260507135517 | 56 | 248 | 1.7 | 4.3 | 0.00 | 0.18 | 0.04 | 69 | 1008.2 |
| 20260507134517 | 57 | 259 | 1.7 | 3.5 | 0.00 | 0.18 | 0.04 | 70 | 1008.1 |
| 20260507133520 | 56 | 348 | 0.9 | 2.6 | 0.00 | 0.18 | 0.04 | 68 | 1008.1 |
| 20260507132520 | 55 | 334 | 1.7 | 3.5 | 0.00 | 0.18 | 0.04 | 72 | 1008.2 |
| 20260507131517 | 54 | 266 | 1.7 | 4.3 | 0.00 | 0.18 | 0.04 | 76 | 1008.3 |
| 20260507130518 | 53 | 325 | 1.7 | 3.5 | 0.00 | 0.18 | 0.04 | 78 | 1008.2 |
| 20260507125518 | 53 | 319 | 1.7 | 3.5 | 0.00 | 0.18 | 0.04 | 81 | 1008.2 |
| 20260507124520 | 52 | 300 | 1.7 | 3.5 | 0.00 | 0.18 | 0.04 | 82 | 1008.2 |
| 20260507123521 | 51 | 304 | 1.7 | 3.5 | 0.00 | 0.18 | 0.04 | 86 | 1008.1 |
| 20260507122521 | 50 | 338 | 1.7 | 2.6 | 0.00 | 0.18 | 0.04 | 91 | 1008.1 |
| 20260507121521 | 50 | 345 | 0.9 | 1.7 | 0.00 | 0.18 | 0.04 | 92 | 1008.1 |
| 20260507120521 | 49 | 300 | 0.0 | 0.9 | 0.00 | 0.18 | 0.04 | 95 | 1008.1 |
| 20260507115521 | 49 | 312 | 0.9 | 2.6 | 0.00 | 0.18 | 0.04 | 96 | 1008.2 |
| 20260507114542 | 49 | 318 | 0.9 | 1.7 | 0.00 | 0.18 | 0.04 | 97 | 1008.2 |
| 20260507113522 | 49 | 349 | 0.9 | 1.7 | 0.00 | 0.18 | 0.04 | 98 | 1008.1 |
| 20260507112522 | 48 | 310 | 0.9 | 1.7 | 0.00 | 0.18 | 0.04 | 99 | 1008.3 |
| 20260507111542 | 48 | 295 | 0.9 | 1.7 | 0.00 | 0.18 | 0.04 | 99 | 1008.3 |
| 20260507110522 | 48 | 71 | 0.0 | 0.9 | 0.00 | 0.18 | 0.04 | 99 | 1007.9 |
| 20260507105522 | 48 | 52 | 0.9 | 1.7 | 0.00 | 0.18 | 0.04 | 99 | 1008.2 |
| 20260507104523 | 48 | 66 | 0.9 | 0.9 | 0.00 | 0.18 | 0.04 | 99 | 1008.2 |
| 20260507103522 | 48 | 327 | 0.0 | 0.9 | 0.00 | 0.18 | 0.04 | 99 | 1008.0 |
| 20260507102525 | 48 | 103 | 0.9 | 1.7 | 0.01 | 0.18 | 0.04 | 99 | 1007.6 |
| 20260507101543 | 48 | 331 | 0.0 | 1.7 | 0.01 | 0.18 | 0.04 | 99 | 1007.5 |
| 20260507100523 | 48 | 69 | 0.0 | 1.7 | 0.01 | 0.18 | 0.04 | 99 | 1007.4 |
| 20260507095526 | 48 | 284 | 0.9 | 1.7 | 0.01 | 0.18 | 0.03 | 98 | 1007.4 |
| 20260507094523 | 48 | 77 | 0.9 | 1.7 | 0.01 | 0.18 | 0.03 | 98 | 1007.3 |
| 20260507093523 | 48 | 22 | 0.9 | 1.7 | 0.01 | 0.18 | 0.03 | 98 | 1007.4 |
| 20260507092543 | 49 | 311 | 0.9 | 1.7 | 0.01 | 0.18 | 0.03 | 98 | 1007.7 |
| 20260507091547 | 49 | 352 | 0.9 | 1.7 | 0.00 | 0.17 | 0.03 | 98 | 1007.6 |
| 20260507090527 | 49 | 312 | 0.9 | 1.7 | 0.00 | 0.17 | 0.03 | 98 | 1007.8 |
| 20260507085523 | 49 | 290 | 0.9 | 2.6 | 0.00 | 0.17 | 0.02 | 98 | 1007.9 |
| 20260507084524 | 49 | 303 | 0.9 | 1.7 | 0.00 | 0.17 | 0.02 | 98 | 1007.8 |
| 20260507083524 | 50 | 304 | 0.0 | 1.7 | 0.02 | 0.17 | 0.02 | 97 | 1007.6 |
| 20260507082523 | 50 | 278 | 1.7 | 2.6 | 0.02 | 0.17 | 0.02 | 97 | 1007.6 |
| 20260507081546 | 50 | 281 | 0.9 | 3.5 | 0.02 | 0.17 | 0.02 | 97 | 1007.2 |
| 20260507080528 | 50 | 272 | 0.9 | 1.7 | 0.02 | 0.17 | 0.02 | 97 | 1007.3 |
| 20260507075525 | 51 | 302 | 1.7 | 2.6 | 0.02 | 0.17 | 0.02 | 96 | 1007.6 |
| 20260507074526 | 52 | 290 | 1.7 | 3.5 | 0.02 | 0.17 | 0.02 | 95 | 1007.3 |
| 20260507073546 | 52 | 302 | 0.9 | 1.7 | 0.01 | 0.15 | 0.01 | 93 | 1007.3 |
| 20260507072525 | 53 | 289 | 1.7 | 3.5 | 0.00 | 0.15 | 0.00 | 96 | 1006.9 |
| 20260507071525 | 53 | 303 | 0.9 | 1.7 | 0.00 | 0.14 | 0.00 | 96 | 1006.7 |
| 20260507070606 | 53 | 269 | 1.7 | 3.5 | 0.00 | 0.14 | 0.00 | 96 | 1006.6 |
| 20260507065527 | 54 | 256 | 0.9 | 1.7 | 0.00 | 0.14 | 0.00 | 97 | 1006.6 |
| 20260507064527 | 54 | 274 | 0.9 | 1.7 | 0.00 | 0.14 | 0.00 | 97 | 1006.5 |
| 20260507063527 | 54 | 280 | 0.9 | 1.7 | 0.00 | 0.14 | 0.00 | 98 | 1006.6 |
| 20260507062526 | 54 | 259 | 0.9 | 1.7 | 0.00 | 0.14 | 0.00 | 98 | 1006.7 |
| 20260507061526 | 54 | 274 | 1.7 | 2.6 | 0.00 | 0.14 | 0.00 | 97 | 1006.6 |
| 20260507060526 | 54 | 272 | 0.9 | 1.7 | 0.00 | 0.14 | 0.00 | 97 | 1006.6 |
| 20260507055526 | 55 | 218 | 0.9 | 2.6 | 0.00 | 0.14 | 0.00 | 98 | 1006.6 |
| 20260507054526 | 55 | 270 | 0.9 | 1.7 | 0.00 | 0.14 | 0.00 | 98 | 1006.8 |
| 20260507053528 | 55 | 288 | 0.9 | 1.7 | 0.00 | 0.14 | 0.00 | 98 | 1006.9 |
| 20260507052547 | 56 | 253 | 0.0 | 2.6 | 0.00 | 0.14 | 0.00 | 98 | 1006.9 |
| 20260507051527 | 56 | 304 | 0.9 | 1.7 | 0.00 | 0.14 | 0.00 | 98 | 1006.8 |
| 20260507050527 | 56 | 275 | 1.7 | 2.6 | 0.00 | 0.14 | 0.00 | 98 | 1006.6 |
| 20260507045527 | 57 | 285 | 0.9 | 1.7 | 0.00 | 0.14 | 0.00 | 98 | 1006.9 |
| 20260507044529 | 57 | 270 | 1.7 | 2.6 | 0.00 | 0.14 | 0.00 | 99 | 1007.0 |
| 20260507043529 | 58 | 298 | 1.7 | 2.6 | 0.00 | 0.14 | 0.00 | 99 | 1006.8 |
| 20260507042527 | 58 | 265 | 1.7 | 2.6 | 0.00 | 0.14 | 0.00 | 99 | 1006.8 |
| 20260507041528 | 58 | 270 | 1.7 | 2.6 | 0.00 | 0.14 | 0.00 | 99 | 1006.8 |
| 20260507040527 | 58 | 278 | 2.6 | 4.3 | 0.00 | 0.14 | 0.00 | 100 | 1006.8 |
| 20260507035528 | 59 | 251 | 0.9 | 2.6 | 0.00 | 0.14 | 0.14 | 99 | 1007.0 |
| 20260507034528 | 59 | 261 | 1.7 | 3.5 | 0.00 | 0.14 | 0.14 | 99 | 1006.7 |
| 20260507033529 | 59 | 255 | 1.7 | 2.6 | 0.00 | 0.14 | 0.14 | 99 | 1006.6 |
| 20260507032530 | 59 | 233 | 0.9 | 1.7 | 0.00 | 0.14 | 0.14 | 100 | 1006.6 |
| 20260507031548 | 59 | 265 | 1.7 | 3.5 | 0.00 | 0.14 | 0.14 | 99 | 1006.3 |
| 20260507030528 | 59 | 236 | 1.7 | 1.7 | 0.00 | 0.14 | 0.14 | 99 | 1006.2 |
| 20260507025548 | 59 | 197 | 1.7 | 2.6 | 0.00 | 0.14 | 0.14 | 99 | 1005.9 |
| 20260507024529 | 59 | 208 | 0.9 | 2.6 | 0.00 | 0.14 | 0.14 | 99 | 1005.9 |
| 20260507023529 | 59 | 209 | 1.7 | 2.6 | 0.00 | 0.14 | 0.14 | 99 | 1006.0 |
| 20260507022549 | 59 | 171 | 1.7 | 3.5 | 0.00 | 0.14 | 0.14 | 99 | 1006.1 |
| 20260507021520 | 59 | 244 | 1.7 | 4.3 | 0.00 | 0.14 | 0.14 | 99 | 1006.0 |
| 20260507020532 | 59 | 251 | 1.7 | 3.5 | 0.00 | 0.14 | 0.14 | 99 | 1006.0 |
| 20260507015520 | 59 | 259 | 1.7 | 5.2 | 0.00 | 0.14 | 0.14 | 99 | 1006.0 |
| 20260507014528 | 59 | 190 | 1.7 | 3.5 | 0.00 | 0.14 | 0.14 | 99 | 1006.0 |
| 20260507013529 | 59 | 155 | 1.7 | 2.6 | 0.00 | 0.14 | 0.14 | 99 | 1006.0 |
| 20260507012550 | 59 | 140 | 1.7 | 3.5 | 0.00 | 0.14 | 0.14 | 99 | 1006.1 |
| 20260507011524 | 59 | 105 | 1.7 | 5.2 | 0.00 | 0.14 | 0.14 | 99 | 1006.2 |
| 20260507010521 | 59 | 237 | 1.7 | 4.3 | 0.00 | 0.14 | 0.14 | 99 | 1006.2 |
| 20260507005521 | 59 | 252 | 1.7 | 4.3 | 0.00 | 0.14 | 0.14 | 99 | 1006.2 |
| 20260507004550 | 59 | 204 | 1.7 | 3.5 | 0.00 | 0.14 | 0.14 | 99 | 1006.3 |
| 20260507003521 | 59 | 114 | 1.7 | 4.3 | 0.00 | 0.14 | 0.14 | 99 | 1006.3 |
| 20260507002518 | 59 | 127 | 1.7 | 6.1 | 0.00 | 0.14 | 0.14 | 100 | 1006.2 |
| 20260507001521 | 59 | 164 | 1.7 | 3.5 | 0.01 | 0.14 | 0.14 | 100 | 1006.3 |
| 20260507000520 | 59 | 228 | 0.9 | 3.5 | 0.04 | 0.14 | 0.14 | 99 | 1006.1 |
| 20260506235519 | 59 | 141 | 1.7 | 6.1 | 0.04 | 0.14 | 0.14 | 100 | 1006.0 |
| 20260506234519 | 59 | 127 | 1.7 | 7.0 | 0.04 | 0.14 | 0.14 | 100 | 1005.9 |
| 20260506233518 | 59 | 150 | 1.7 | 7.0 | 0.04 | 0.14 | 0.14 | 100 | 1005.9 |
| 20260506232519 | 59 | 172 | 0.9 | 3.5 | 0.04 | 0.14 | 0.14 | 99 | 1005.9 |
| 20260506231520 | 59 | 147 | 1.7 | 3.5 | 0.04 | 0.14 | 0.14 | 99 | 1005.9 |
| 20260506230519 | 59 | 168 | 1.7 | 5.2 | 0.01 | 0.11 | 0.11 | 99 | 1006.0 |
| 20260506225516 | 59 | 186 | 1.7 | 4.3 | 0.00 | 0.10 | 0.10 | 99 | 1006.0 |
| 20260506224537 | 59 | 241 | 1.7 | 2.6 | 0.00 | 0.10 | 0.10 | 99 | 1006.1 |
| 20260506223519 | 60 | 168 | 1.7 | 4.3 | 0.00 | 0.10 | 0.10 | 98 | 1006.1 |
| 20260506222522 | 60 | 138 | 1.7 | 6.1 | 0.00 | 0.10 | 0.10 | 98 | 1006.1 |
| 20260506221517 | 60 | 143 | 2.6 | 7.8 | 0.00 | 0.10 | 0.10 | 98 | 1006.2 |
| 20260506220538 | 60 | 137 | 1.7 | 7.8 | 0.00 | 0.10 | 0.10 | 98 | 1006.4 |
| 20260506215521 | 60 | 146 | 1.7 | 4.3 | 0.00 | 0.10 | 0.10 | 97 | 1006.3 |
| 20260506214519 | 60 | 189 | 1.7 | 3.5 | 0.00 | 0.10 | 0.10 | 96 | 1006.5 |
| 20260506213517 | 60 | 251 | 2.6 | 8.7 | 0.01 | 0.10 | 0.10 | 96 | 1006.6 |
| 20260506212538 | 60 | 254 | 1.7 | 7.0 | 0.01 | 0.10 | 0.10 | 96 | 1006.7 |
| 20260506211518 | 60 | 274 | 1.7 | 6.1 | 0.02 | 0.10 | 0.10 | 96 | 1006.8 |
| 20260506210518 | 60 | 162 | 1.7 | 4.3 | 0.02 | 0.10 | 0.10 | 96 | 1006.8 |
| 20260506205521 | 60 | 282 | 2.6 | 7.0 | 0.02 | 0.10 | 0.10 | 95 | 1006.8 |
| 20260506204518 | 61 | 99 | 0.9 | 4.3 | 0.02 | 0.10 | 0.10 | 95 | 1007.0 |
| 20260506203518 | 61 | 235 | 1.7 | 4.3 | 0.03 | 0.10 | 0.10 | 95 | 1007.2 |
| 20260506202538 | 61 | 264 | 2.6 | 6.1 | 0.04 | 0.09 | 0.09 | 95 | 1007.1 |
| 20260506201518 | 61 | 129 | 1.7 | 5.2 | 0.04 | 0.08 | 0.08 | 95 | 1007.1 |
| 20260506200518 | 61 | 248 | 1.7 | 7.0 | 0.04 | 0.08 | 0.08 | 94 | 1007.1 |
| 20260506195518 | 61 | 234 | 2.6 | 7.0 | 0.05 | 0.08 | 0.08 | 93 | 1007.1 |
| 20260506194519 | 62 | 207 | 1.7 | 6.1 | 0.06 | 0.08 | 0.08 | 91 | 1007.2 |
| 20260506193519 | 63 | 273 | 3.5 | 7.8 | 0.05 | 0.06 | 0.06 | 88 | 1007.2 |
| 20260506192537 | 64 | 134 | 2.6 | 8.7 | 0.05 | 0.05 | 0.05 | 87 | 1007.3 |
| 20260506191519 | 64 | 230 | 0.9 | 6.1 | 0.05 | 0.05 | 0.05 | 85 | 1007.2 |
| 20260506190520 | 65 | 248 | 1.7 | 5.2 | 0.04 | 0.04 | 0.04 | 81 | 1007.3 |
| 20260506185540 | 67 | 164 | 2.6 | 7.8 | 0.03 | 0.03 | 0.03 | 76 | 1007.4 |
| 20260506184537 | 68 | 258 | 3.5 | 7.0 | 0.02 | 0.02 | 0.02 | 73 | 1007.5 |
| 20260506183517 | 69 | 258 | 2.6 | 7.8 | 0.02 | 0.02 | 0.02 | 70 | 1007.5 |